Weather History for HEGN - March, 2012

Change the Weather History Date:

Friday, March 23, 2012

  Actual Average Record
Temperature  
Mean Temperature 67 °F -  
Max Temperature 77 °F 80 °F 93 °F (2008)
Min Temperature 57 °F 63 °F 53 °F (2009)
Cooling Degree Days 2    
Growing Degree Days 17 (Base 50)    
Moisture  
Dew Point 35 °F    
Average Humidity 28    
Maximum Humidity 46    
Minimum Humidity 12    
Precipitation  
Precipitation 0.00 in - - ()
Sea Level Pressure  
Sea Level Pressure 29.97 in    
Wind  
Wind Speed 13 mph ()    
Max Wind Speed 21 mph    
Max Gust Speed -    
Visibility 6.0 miles    
Events      
Averages and records for this station are not official NWS values.
T = Trace of Precipitation, MM = Missing Value Source: Averaged Metar Reports

Daily Weather History Graph

Daily Weather History Graph

Search for Another Location

Airport or City:

Trip Planner

Search our weather history database for the weather conditions in past years. The results will help you decide how hot, cold, wet, or windy it might be!

Date:

Astronomy

Mar. 23, 2012 Rise Set
Actual Time 5:45 AM EET 5:57 PM EET
Civil Twilight 5:21 AM EET 6:21 PM EET
Nautical Twilight 4:54 AM EET 6:48 PM EET
Astronomical Twilight 4:27 AM EET 7:15 PM EET
Moon 5:51 AM EET (3/23) 6:49 PM EET (3/23)
Length of Visible Light 12h 59m
Length of Day
12h 12m
New Moon, 1% of the Moon is Illuminated
Mar 23
New Moon
Mar 30
First Quarter
Apr 6
Full
Apr 13
Last Quarter
Apr 21
New

Hourly Weather History & Observations

Time (EET) Temp. Dew Point Humidity Pressure Visibility Wind Dir Wind Speed Gust Speed Precip Events Conditions
12:00 AM 66.2 °F 28.4 °F 24% 29.98 in - WNW 11.5 mph - N/A   Clear
1:00 AM 64.4 °F 26.6 °F 24% 29.98 in - NW 13.8 mph - N/A   Clear
2:00 AM 63 °F 24 °F 12% 29.98 in 6 mi NNW 13.8 mph - -  
2:00 AM 62.6 °F 24.8 °F 24% 29.98 in - NNW 13.8 mph - N/A   Clear
3:00 AM 60.8 °F 24.8 °F 25% 29.98 in - NW 13.8 mph - N/A   Clear
4:00 AM 60.8 °F 28.4 °F 29% 29.98 in - WNW 12.7 mph - N/A   Clear
5:00 AM 59.0 °F 30.2 °F 34% 29.98 in - WNW 12.7 mph - N/A   Clear
6:00 AM 59.0 °F 30.2 °F 34% 29.98 in - WNW 13.8 mph - N/A   Clear
7:00 AM 60.8 °F 30.2 °F 31% 29.98 in - WNW 18.4 mph - N/A   Clear
8:00 AM 65 °F 33 °F 20% 30.01 in 6 mi NW 17.3 mph - -  
8:00 AM 66.2 °F 33.8 °F 30% 30.01 in - NW 17.3 mph - N/A   Clear
9:00 AM 69.8 °F 30.2 °F 23% 30.01 in - WNW 18.4 mph - N/A   Clear
10:00 AM 73.4 °F 37.4 °F 27% 30.01 in - NW 19.6 mph - N/A   Clear
11:00 AM 75.2 °F 39.2 °F 27% 29.98 in - North 18.4 mph - N/A   Clear
12:00 PM 75.2 °F 39.2 °F 27% 29.98 in - North 20.7 mph - N/A   Clear
1:00 PM 77.0 °F 37.4 °F 24% 29.95 in - North 16.1 mph - N/A   Clear
2:00 PM 76 °F 42 °F 19% 29.95 in 6 mi North 18.4 mph - -   Clear
2:00 PM 75.2 °F 41.0 °F 29% 29.95 in - North 18.4 mph - N/A   Clear
3:00 PM 77.0 °F 46.4 °F 34% 29.92 in - North 17.3 mph - N/A   Clear
4:00 PM 75.2 °F 42.8 °F 31% 29.92 in - North 13.8 mph - N/A   Clear
5:00 PM 77.0 °F 41.0 °F 28% 29.92 in - North 16.1 mph - N/A   Clear
6:00 PM 71.6 °F 42.8 °F 35% 29.92 in - North 15.0 mph - N/A   Clear
7:00 PM 69.8 °F 48.2 °F 46% 29.92 in - North 16.1 mph - N/A   Clear
8:00 PM 69 °F 45 °F 31% 29.96 in 6 mi North 15.0 mph - -  
8:00 PM 69.8 °F 44.6 °F 40% 29.95 in - North 15.0 mph - N/A   Clear
9:00 PM 68.0 °F 39.2 °F 35% 29.95 in - NW 16.1 mph - N/A   Clear
10:00 PM 66.2 °F 28.4 °F 24% 29.98 in - NW 12.7 mph - N/A   Clear
11:00 PM 66.2 °F 33.8 °F 30% 29.98 in - WNW 11.5 mph - N/A   Clear